Wind_Speed
5 4 4 4 4 4 4 4 4 5 6 7 8 10 10 11 12 13 14 15 15 16 19 22 24 23 22 19 14 11 10 8 7 7 9 9 9 9 9 9 10 11 12 13 14 14 14 13 11 8 7 6 6 5 4 4 4 4 6 6 7 9 8 8 8 8 8 9 10 12 12 12 15 17 18 20 21 19 16 15 14 14 14 15 16 18 18 19
6 5 5 5 5 5 5 5 6 6 7 8 9 10 11 11 12 13 14 15 15 14 16 19 21 21 20 19 15 11 9 8 7 7 8 8 8 9 10 10 10 11 11 13 15 16 16 14 13 10 9 8 7 6 4 4 4 4 6 7 8 9 9 10 10 9 9 10 12 14 14 13 15 18 19 20 22 22 20 18 17 16 16 17 19 20 20 21
7 7 6 7 7 7 7 8 8 8 9 9 10 11 12 12 12 13 14 14 14 14 14 15 18 19 18 17 15 11 9 8 6 6 6 7 8 8 10 11 11 10 10 12 15 16 15 14 13 12 10 9 7 5 4 3 3 3 5 6 10 11 12 12 11 11 12 14 16 17 17 16 17 20 21 21 22 23 21 21 20 19 19 20 21 22 22 23
9 9 9 9 9 10 10 10 10 10 11 11 11 12 12 13 14 14 14 14 14 13 13 13 14 16 16 15 14 11 9 7 6 5 6 7 8 9 11 13 12 11 12 14 17 18 16 13 11 11 10 9 6 4 3 4 3 2 2 5 8 11 13 13 13 14 16 18 20 19 20 20 20 22 23 22 22 23 22 21 20 20 21 22 23 24 24 24
10 10 10 11 11 11 12 12 12 12 12 12 13 13 13 14 14 15 14 14 14 13 13 12 12 13 14 13 12 11 9 7 7 6 6 8 9 10 12 13 14 14 14 16 18 19 17 13 11 9 9 8 6 4 4 5 4 4 3 2 6 9 12 14 15 16 18 20 21 22 23 23 22 22 23 23 23 23 22 21 21 22 23 24 24 25 25 25
10 11 11 11 12 12 13 13 13 13 13 13 13 13 13 14 14 15 14 14 13 13 13 12 11 11 12 12 11 10 9 7 7 7 7 8 9 11 12 13 14 15 16 17 18 18 16 13 11 10 9 8 6 6 7 7 6 6 3 2 5 8 11 13 15 17 18 20 21 22 23 22 21 20 21 22 23 23 23 22 22 23 24 25 25 25 25 25
10 11 12 12 13 13 13 13 13 13 13 13 13 13 13 14 14 14 14 14 13 13 13 12 12 11 11 10 10 10 8 7 8 8 8 8 9 11 12 13 14 15 16 17 17 17 16 14 12 11 10 8 8 8 8 8 7 5 3 2 4 7 11 14 15 16 17 19 20 21 22 21 19 18 19 21 23 25 25 24 24 24 25 25 25 24 24 25
11 12 13 13 14 14 15 15 15 15 15 15 14 14 14 14 14 15 15 14 14 13 13 13 13 12 11 9 9 9 9 7 7 8 8 8 9 10 11 12 13 15 15 16 16 16 16 15 13 12 11 9 9 8 8 8 6 5 6 6 6 7 11 13 14 15 15 17 19 20 20 20 18 17 19 22 24 25 26 25 26 26 25 24 24 23 24 26
12 12 13 14 15 16 16 17 17 17 16 16 16 15 14 15 15 15 15 15 15 14 13 13 13 12 12 10 8 9 9 7 6 7 8 8 9 9 10 11 13 14 14 15 15 16 16 16 15 13 11 9 9 8 8 7 6 8 9 8 8 8 10 11 12 14 14 16 18 19 18 19 19 19 22 24 24 24 25 25 25 25 25 24 24 24 25 27
14 14 14 15 16 17 18 18 18 17 17 16 16 16 15 15 15 16 16 16 16 15 14 14 13 13 13 11 9 10 9 8 7 7 7 8 8 9 9 10 11 12 13 14 14 15 15 15 15 14 12 10 9 8 7 7 8 9 10 10 10 10 11 11 11 13 13 13 16 19 20 20 20 24 26 25 24 24 24 24 24 24 25 25 25 26 27 29
15 15 16 16 17 18 18 18 18 17 17 16 17 17 16 15 15 15 16 16 16 16 15 14 14 14 14 12 11 10 9 9 8 7 7 7 7 8 8 9 10 11 12 12 13 14 15 15 16 14 12 10 10 8 5 6 9 10 11 11 10 9 11 11 10 11 12 11 13 17 21 24 26 27 25 24 26 26 24 24 24 25 26 27 27 28 30 31
16 16 17 17 18 18 18 18 18 17 17 17 17 17 17 17 16 16 16 16 17 16 16 15 15 15 14 13 11 11 10 10 10 9 8 8 8 7 7 8 9 10 11 12 12 13 15 16 16 14 12 11 9 6 5 7 10 11 11 11 9 10 11 10 9 10 11 11 12 16 22 28 29 27 24 26 28 25 24 24 23 25 26 28 29 31 32 34
18 17 18 18 19 19 18 18 18 17 17 17 17 17 17 17 17 17 17 17 17 17 17 16 16 15 14 13 12 11 11 12 11 11 10 9 8 7 7 8 9 10 11 12 13 13 14 16 16 15 13 11 7 5 6 10 12 12 11 11 11 11 10 9 10 12 12 13 15 18 24 30 29 27 27 28 27 24 24 24 24 26 27 30 32 33 35 36
19 18 19 19 19 19 19 18 18 18 17 17 17 17 17 17 18 18 17 17 17 17 17 17 17 16 15 14 12 11 12 12 13 13 11 10 9 8 8 9 9 10 11 13 13 13 14 15 15 15 13 11 8 6 8 11 13 11 10 12 12 12 11 12 13 14 15 16 19 20 27 32 27 26 28 27 26 25 25 25 26 28 29 32 34 36 37 37
20 20 20 20 20 19 19 19 19 18 18 17 17 18 18 18 18 18 18 17 17 18 18 18 17 17 17 15 13 12 12 12 13 14 13 12 11 10 9 9 10 11 12 13 15 14 14 14 15 16 14 12 11 9 10 11 12 11 12 12 12 13 14 15 16 18 19 20 21 21 26 30 27 25 27 26 27 27 27 28 29 31 32 35 36 37 38 39
22 21 21 21 20 20 20 20 20 19 18 18 18 18 19 18 18 18 18 18 18 18 18 18 18 19 18 17 14 12 12 12 13 14 14 14 13 12 10 10 11 12 14 14 16 16 15 15 15 16 15 13 12 12 12 12 11 12 14 13 14 16 17 19 19 21 22 23 24 22 26 31 30 29 29 28 29 29 30 32 32 33 35 37 38 39 40 41
24 23 23 23 22 21 21 21 21 20 20 19 19 19 19 20 19 19 19 19 19 19 20 19 19 19 18 16 15 14 16 17 16 16 16 16 16 15 13 11 11 13 15 16 17 17 17 15 15 16 15 14 13 13 14 14 15 16 16 17 18 19 20 22 23 23 23 24 27 27 30 34 32 31 31 31 32 33 33 34 34 35 37 38 40 41 43 43
25 25 25 25 24 23 23 22 22 21 21 21 21 20 20 21 21 20 20 20 19 19 20 20 19 20 19 17 19 20 21 21 20 19 19 19 18 18 15 13 13 13 16 18 19 19 18 17 16 15 15 15 14 13 13 15 18 19 19 20 21 21 23 25 24 23 23 25 27 29 31 32 30 30 32 32 34 35 36 36 36 37 39 41 42 44 45 46
27 27 27 26 26 25 24 24 24 23 23 22 23 23 23 22 22 22 21 20 20 19 20 20 20 22 21 21 23 23 23 23 23 21 20 20 20 20 18 16 15 15 16 19 19 20 20 19 17 16 16 16 15 14 15 17 18 19 19 21 23 25 26 25 24 22 22 25 28 30 31 30 28 29 32 33 35 37 38 38 38 41 42 43 45 46 47 47
29 28 28 28 28 27 26 25 25 25 24 24 24 24 24 24 24 24 22 21 21 21 21 21 23 24 24 24 24 23 24 24 24 23 20 19 20 20 19 18 16 16 17 19 20 21 21 20 19 17 16 17 16 16 17 18 19 19 20 22 24 27 26 25 24 23 24 27 31 31 31 30 28 30 32 34 36 39 40 40 42 43 44 46 47 48 48 46
30 30 30 29 29 28 28 27 27 27 26 26 26 26 27 27 27 27 26 25 24 24 23 24 24 26 26 25 24 24 25 25 25 23 20 19 20 20 20 19 18 18 18 20 21 22 23 21 18 16 17 18 17 17 18 18 19 20 21 23 25 27 27 26 25 25 24 28 32 31 32 33 30 30 33 36 40 42 43 43 44 46 47 48 49 49 47 45
31 32 32 31 30 30 29 29 29 29 28 28 28 29 29 29 29 29 30 30 28 26 27 27 27 27 27 25 24 23 23 22 22 20 18 18 19 21 21 20 20 19 20 21 22 23 24 21 17 17 19 18 18 19 19 18 19 20 21 23 25 26 28 28 25 24 24 27 32 33 34 35 32 32 35 39 43 43 44 46 47 49 49 49 48 47 45 44
32 33 32 32 31 31 31 31 31 31 31 30 31 31 31 31 31 31 32 33 32 30 28 28 28 29 27 24 20 18 17 16 16 16 16 17 19 21 22 22 21 21 21 21 22 24 24 20 19 20 19 19 20 21 19 18 19 20 21 23 25 25 26 28 27 26 26 29 33 35 39 40 36 36 37 39 44 46 46 48 49 49 48 47 45 44 44 45
33 33 33 32 32 33 33 33 33 33 32 32 32 33 33 33 33 33 33 34 35 34 31 29 28 28 24 18 13 12 12 13 14 15 15 17 20 21 22 22 22 22 22 22 23 26 25 21 21 20 19 21 22 21 20 20 19 19 20 22 24 23 23 27 29 28 29 29 30 33 40 40 31 28 29 29 34 39 40 42 44 44 44 43 43 43 44 43
34 33 33 33 33 34 34 34 34 34 34 34 34 34 34 34 34 34 33 32 34 34 32 29 25 22 18 13 10 11 12 13 14 14 16 18 20 21 22 22 22 23 23 24 25 27 25 21 20 20 21 23 23 21 20 19 21 21 19 19 21 22 25 27 27 28 28 25 23 25 23 18 15 19 26 28 30 33 35 38 39 39 40 40 40 42 42 42
35 34 35 34 34 35 35 35 35 35 35 35 35 34 34 34 33 32 30 27 29 32 29 24 18 14 13 11 11 12 12 13 14 15 17 19 20 22 22 22 23 23 24 25 26 27 25 21 20 22 24 25 24 22 18 17 20 21 19 17 19 23 26 28 27 26 24 20 23 25 19 16 23 33 37 37 34 33 33 36 37 37 37 38 39 40 41 40
36 36 36 36 35 36 36 37 35 36 36 35 35 34 33 33 31 31 27 17 17 24 22 17 15 14 14 14 14 14 12 13 15 16 18 20 21 21 21 23 24 24 25 26 25 26 25 23 22 23 25 26 25 21 16 16 19 21 21 19 21 24 26 28 29 27 28 28 31 34 28 25 33 41 38 32 29 31 33 34 33 33 33 34 37 39 38 38
37 37 37 37 36 37 37 37 37 37 37 35 35 34 32 31 29 27 19 6 7 18 20 18 19 20 19 18 17 16 16 17 16 16 17 19 20 20 21 23 25 26 27 27 29 30 27 25 24 24 26 26 22 19 16 17 19 21 21 20 23 25 26 30 29 29 31 26 29 36 28 18 26 36 34 29 30 33 33 31 28 28 29 32 36 36 36 37
38 38 38 38 38 38 38 38 37 37 36 35 34 33 31 29 26 21 10 4 9 17 20 20 21 22 21 19 18 18 18 19 19 18 19 19 19 20 22 25 27 27 28 31 34 32 26 24 23 24 27 24 20 19 18 18 19 20 20 21 23 25 28 29 26 30 26 15 25 37 25 12 18 31 31 28 30 32 29 27 27 29 30 33 35 34 35 37
40 39 40 41 40 39 39 38 37 36 35 34 32 32 30 27 22 12 5 7 14 17 19 22 24 24 23 21 20 18 19 20 22 23 22 21 21 21 24 28 28 28 30 32 35 31 25 23 23 24 25 23 21 20 19 18 17 18 20 21 23 25 27 26 23 24 14 9 22 28 22 16 13 25 32 29 32 34 32 31 31 31 32 34 34 33 34 36
42 41 42 42 41 40 38 37 36 35 34 33 32 30 27 23 17 8 6 14 21 19 21 23 23 22 20 19 18 18 20 21 22 24 23 23 23 24 27 27 26 28 31 32 31 28 23 22 24 26 25 22 21 20 18 17 16 17 18 21 22 19 18 16 14 12 4 7 17 16 15 17 15 24 37 36 39 39 36 34 31 31 33 33 32 31 34 36
42 42 43 42 40 39 37 36 35 34 32 32 30 28 25 18 15 17 16 20 16 11 14 16 16 16 15 17 18 19 21 22 23 24 24 26 28 29 29 28 26 26 27 27 26 27 27 27 27 26 23 18 18 19 18 16 15 16 16 17 15 9 8 6 5 5 5 10 16 13 10 15 28 41 45 38 38 34 33 33 31 31 34 33 31 31 34 36
41 42 41 40 40 38 36 35 34 32 31 31 28 28 23 14 14 22 26 22 15 14 17 17 18 19 18 19 20 20 22 24 25 25 27 30 32 32 31 30 28 25 25 27 27 26 26 26 25 22 18 14 15 16 15 14 14 14 15 15 10 2 4 4 4 4 7 12 17 16 12 16 31 41 37 33 33 31 33 34 32 33 33 32 32 32 35 36
41 41 40 40 39 36 35 34 34 32 31 30 29 27 23 19 18 24 29 29 28 29 29 26 26 26 24 24 23 22 24 26 28 29 32 34 35 34 32 29 26 22 24 27 26 21 16 16 18 16 13 11 12 13 13 15 17 17 18 16 15 12 6 5 4 4 8 15 19 14 9 13 22 29 33 37 40 38 38 37 35 35 33 32 33 34 35 37
41 41 41 40 38 36 35 34 34 32 31 31 31 29 31 30 28 30 33 33 32 32 33 31 31 29 28 28 27 26 26 27 30 31 32 34 34 33 32 29 26 23 23 22 20 16 13 16 18 15 14 13 14 15 15 16 17 17 17 18 19 18 15 15 15 15 14 15 15 14 17 28 36 41 44 43 43 41 37 38 38 35 34 32 33 34 35 35
42 41 42 41 38 37 36 35 34 32 32 33 32 37 43 41 37 34 33 31 29 30 31 30 29 27 27 29 29 28 28 30 33 32 32 33 33 34 34 31 27 23 21 22 20 15 13 18 18 14 16 18 18 19 18 17 16 15 16 19 20 18 18 20 18 16 11 8 13 16 24 38 40 40 44 39 38 39 35 37 37 33 32 31 31 33 33 34
43 43 44 42 38 37 37 36 35 34 34 35 39 46 49 46 43 39 35 35 34 33 32 29 27 25 24 24 23 23 24 27 30 31 32 30 27 28 28 24 22 20 17 19 22 20 20 27 28 23 22 23 22 20 20 21 20 20 20 19 18 15 17 17 9 6 3 3 13 16 23 36 28 26 42 41 37 38 34 34 35 30 29 29 30 32 32 34
44 45 46 43 38 37 39 37 36 36 36 39 46 51 50 48 46 42 38 39 38 37 36 34 31 29 29 27 25 23 23 26 28 28 29 27 24 25 25 21 19 17 16 17 21 23 23 28 32 26 21 21 21 20 22 24 24 25 26 22 18 15 14 14 9 4 2 2 9 11 20 36 30 27 44 46 38 34 31 31 31 28 28 29 30 31 31 33
45 46 48 46 39 37 39 38 37 38 39 46 52 52 51 51 49 44 40 40 39 38 39 40 37 34 34 33 30 28 27 30 33 31 29 26 25 28 28 22 16 14 17 19 21 25 24 22 23 21 18 17 19 23 26 26 24 26 28 27 27 24 21 20 15 9 4 3 9 9 12 28 34 34 42 40 34 33 32 34 31 27 30 31 30 31 31 32
45 47 50 47 40 37 38 39 40 42 46 52 55 54 53 52 49 46 42 39 40 40 42 42 39 38 38 37 34 33 32 35 37 35 33 31 31 34 32 26 21 20 20 21 22 24 24 24 25 24 21 20 24 28 29 26 22 25 31 31 31 30 27 24 23 22 15 6 6 4 9 29 39 41 44 39 38 42 41 37 33 32 34 32 31 31 31 32
43 46 50 47 40 37 38 41 45 48 52 56 56 55 54 52 51 49 44 41 41 42 43 42 41 41 41 39 38 38 36 38 39 37 37 39 40 38 33 28 25 23 22 23 25 24 24 27 32 32 30 31 35 36 31 27 27 29 33 33 33 33 29 18 15 22 25 19 13 5 11 36 48 46 48 46 45 49 44 38 38 38 36 34 32 31 31 33
44 47 50 46 41 39 39 43 49 50 54 56 55 53 53 52 52 50 46 44 42 43 43 43 45 44 43 42 41 40 39 39 41 39 40 44 44 41 36 32 30 29 28 28 28 28 26 28 33 37 39 40 40 38 33 32 35 35 36 37 35 33 32 25 15 16 21 26 27 15 14 41 58 52 49 49 49 49 44 41 41 39 36 35 33 32 32 33
45 47 47 46 44 42 40 45 50 53 55 56 54 52 52 52 52 50 48 45 44 44 44 45 47 45 45 44 42 42 41 40 42 44 44 47 48 44 39 37 36 34 33 30 28 27 27 29 33 37 40 40 40 40 39 38 38 39 41 41 38 36 38 38 32 24 20 22 23 12 12 40 59 52 46 48 48 46 44 43 43 40 38 36 33 33 33 33
44 45 46 47 47 46 47 51 54 56 57 56 54 54 52 52 53 53 51 49 47 46 46 47 47 46 45 44 42 43 41 38 41 45 45 45 45 42 37 36 36 35 33 31 28 26 26 28 30 25 21 23 25 24 25 30 32 34 36 35 35 38 39 40 38 31 26 28 24 11 15 43 57 50 48 51 50 50 49 48 48 44 40 38 34 34 34 35
43 45 47 49 50 51 52 54 54 55 56 55 55 55 53 54 56 55 54 53 50 48 47 47 47 46 45 43 42 42 42 42 41 43 45 43 41 40 37 36 36 36 35 33 31 32 31 33 32 23 11 11 16 15 17 23 24 27 33 34 35 37 37 38 37 31 27 30 30 25 32 55 63 55 56 59 56 57 56 52 51 47 41 40 38 36 38 40
46 48 50 51 51 53 56 56 54 55 56 54 54 55 57 59 60 58 56 54 52 49 48 49 47 46 44 43 42 43 45 47 45 47 49 45 41 42 41 41 40 37 34 33 33 34 36 39 41 38 32 31 37 39 36 35 34 36 41 42 42 40 36 36 37 38 36 30 35 48 54 61 67 63 60 62 60 58 58 54 51 49 45 42 41 39 41 43
50 54 57 53 47 49 55 56 55 56 56 55 56 58 61 63 62 60 58 56 54 50 48 49 49 48 48 47 46 46 49 50 50 51 51 49 48 47 46 46 45 41 37 34 34 35 39 43 46 46 46 48 51 50 45 44 46 48 49 51 50 44 37 38 43 50 45 26 32 61 64 57 67 67 59 60 60 56 55 54 51 48 45 43 41 42 44 46
58 62 64 60 53 53 57 59 58 56 53 55 58 59 61 63 63 62 59 55 52 50 48 49 52 53 53 50 47 47 51 51 51 52 51 51 49 48 49 49 47 46 43 39 39 38 40 45 48 46 47 51 52 49 46 46 48 51 54 57 54 47 44 47 51 57 50 37 45 68 66 61 70 69 59 58 58 57 56 55 52 49 46 45 45 46 48 47
63 65 65 64 63 64 66 66 62 56 53 53 54 57 62 64 65 64 59 54 52 52 51 53 55 55 53 50 49 51 53 50 49 49 48 47 45 45 47 47 45 45 43 41 43 40 41 46 48 45 48 52 52 49 47 47 49 52 60 64 58 52 53 55 57 59 55 53 63 69 67 71 73 66 63 61 59 60 59 56 55 53 51 50 50 50 49 48
62 64 65 64 65 65 64 62 60 59 58 55 56 63 66 63 63 63 60 57 57 57 55 56 57 55 51 49 50 55 56 51 49 47 44 43 43 43 44 44 42 41 39 41 42 39 41 46 46 43 43 48 52 49 45 46 47 51 63 69 60 53 55 57 59 62 59 60 66 65 67 73 64 52 56 59 56 58 57 54 55 55 52 52 50 49 49 47
62 63 63 62 64 65 63 62 61 61 62 62 65 71 69 66 68 65 61 62 63 61 59 58 56 52 48 48 52 57 56 50 47 45 42 44 45 43 43 44 41 40 40 40 39 39 41 44 46 41 35 42 52 45 39 42 41 46 66 74 62 55 57 58 58 60 59 60 62 58 62 65 56 48 50 52 51 53 51 50 51 49 48 48 46 45 44 43
61 63 63 62 64 65 65 65 63 62 66 71 74 73 70 70 70 63 59 62 63 60 58 57 54 49 48 52 56 56 51 47 46 45 44 47 48 46 47 48 46 45 45 42 40 41 41 42 46 40 32 40 47 40 38 34 24 35 62 67 53 47 48 47 49 52 53 55 56 54 56 60 55 49 49 49 48 48 46 45 45 44 44 43 41 40 38 38
Wind_Direction
209 212 217 222 225 231 243 263 285 303 314 322 327 332 338 344 351 356 358 360 2 6 10 12 11 11 14 19 26 35 44 52 46 38 41 40 34 31 28 22 15 8 6 6 7 7 4 360 356 352 341 328 317 303 287 265 241 232 229 239 241 223 219 223 230 244 259 281 293 298 297 292 292 293 295 295 294 290 284 280 274 271 270 267 267 270 276 282
229 233 242 247 251 253 257 266 279 292 303 310 317 322 327 333 341 348 351 354 356 359 4 9 10 9 11 14 21 29 36 43 43 36 37 38 36 34 25 17 11 7 7 8 7 4 359 354 350 351 351 344 329 309 282 245 236 231 218 230 245 242 243 241 245 260 277 291 294 297 297 292 290 290 290 290 291 291 287 283 280 277 276 275 276 278 282 286
247 250 256 264 270 272 272 275 281 288 295 301 307 312 318 324 331 339 344 347 350 354 358 4 8 7 7 10 14 22 28 34 37 33 30 31 33 27 18 15 13 12 10 6 4 359 354 350 347 348 349 348 339 322 293 262 266 237 217 239 250 252 256 253 253 267 282 289 290 292 292 288 286 287 288 287 287 286 285 286 286 285 285 285 285 286 288 292
258 261 266 273 278 281 283 284 285 288 293 297 301 305 310 316 321 328 334 340 344 347 351 356 4 6 5 5 8 15 17 20 24 27 20 17 20 16 12 14 14 12 6 0 358 354 350 347 346 345 343 346 351 339 310 306 308 268 256 258 251 252 257 255 253 262 272 279 284 287 286 283 281 284 286 286 284 284 287 290 290 289 289 290 289 290 292 294
262 264 269 274 279 284 287 288 290 291 294 296 299 303 306 311 316 320 325 333 338 340 345 348 355 2 2 358 1 6 8 9 11 14 10 4 8 7 6 9 11 9 3 358 355 352 350 349 349 348 344 347 359 351 324 332 330 314 314 252 234 245 252 253 251 256 264 270 276 280 281 280 278 281 284 287 288 290 292 292 290 289 289 289 288 289 290 291
265 268 271 275 279 284 287 290 293 294 296 299 302 305 307 311 315 317 320 326 332 336 339 341 344 351 356 354 351 355 359 359 359 1 359 357 360 0 1 3 5 5 1 358 353 351 354 355 354 354 353 356 2 351 340 343 336 328 330 210 216 233 245 253 256 260 265 269 273 275 276 276 277 280 283 288 292 295 294 292 290 288 287 286 286 286 286 288
269 272 275 278 282 284 288 291 293 296 299 300 303 306 310 313 316 317 318 321 327 331 334 336 336 339 346 346 340 343 345 348 354 354 351 351 352 354 357 358 359 359 357 354 350 351 358 2 1 358 2 7 0 351 347 343 337 333 331 283 246 242 250 258 263 266 268 269 270 271 273 274 276 279 283 289 294 295 293 290 288 286 285 284 283 283 285 287
274 276 279 283 286 288 290 292 294 296 298 299 302 305 309 311 314 316 318 320 323 327 330 331 331 330 333 333 328 327 329 336 346 348 346 345 346 348 350 352 353 352 351 350 350 354 360 3 4 4 7 6 358 354 348 342 338 329 323 311 288 265 261 264 266 267 267 268 269 269 271 273 275 279 285 289 293 294 291 288 285 284 282 281 280 281 284 287
278 280 283 286 289 292 293 294 294 295 296 299 301 303 307 309 311 313 315 317 320 323 326 327 327 325 323 322 315 311 316 319 326 338 338 335 337 339 342 346 346 345 346 348 351 356 359 359 2 5 4 0 357 352 341 334 328 322 322 314 298 279 271 272 270 269 269 269 269 267 264 268 276 284 288 290 293 292 288 284 281 279 277 277 279 281 284 289
281 284 287 290 292 294 296 296 295 295 295 297 300 303 307 309 311 312 313 314 316 318 321 323 323 322 318 313 305 301 305 303 304 319 326 326 328 330 336 339 339 340 342 346 350 354 355 355 359 2 0 354 348 342 331 323 320 321 316 306 298 288 283 280 269 266 269 268 268 266 263 264 272 282 287 291 293 291 285 280 276 274 275 277 279 281 285 290
281 285 289 292 295 297 298 298 297 296 296 298 301 304 307 310 312 312 313 314 315 316 318 319 319 320 316 309 301 293 296 293 287 298 310 315 314 320 330 331 332 334 335 341 346 350 352 353 356 359 359 350 341 336 319 313 317 317 310 302 294 289 289 285 270 262 265 264 263 265 268 270 275 283 288 291 293 290 285 279 274 274 276 278 279 281 285 290
277 282 288 293 296 297 298 298 297 298 298 299 302 305 307 310 311 313 314 315 316 316 318 319 319 319 315 309 299 290 290 284 277 282 290 302 306 308 319 322 323 323 330 337 340 346 349 351 352 353 356 352 346 339 322 318 318 316 310 300 290 290 290 280 267 262 267 268 267 268 272 275 280 287 291 293 294 291 285 280 276 276 278 280 280 281 285 289
273 278 284 290 295 296 296 296 297 298 299 301 303 306 307 308 311 312 314 316 317 317 318 319 320 319 315 310 300 289 285 277 270 271 276 289 297 296 304 313 316 316 325 332 334 340 344 347 346 346 351 355 353 339 325 317 315 317 312 302 298 299 292 275 268 268 272 275 279 276 272 277 284 289 291 293 292 287 283 282 279 278 279 280 281 283 285 289
271 275 280 287 292 294 294 294 295 297 299 301 303 305 307 308 311 311 313 315 315 316 317 318 319 318 315 312 305 291 283 276 267 265 268 276 286 292 296 305 316 318 321 326 328 332 336 339 340 340 345 351 352 335 322 316 315 319 311 305 303 299 290 283 279 275 276 280 285 278 271 279 284 285 289 290 288 286 285 284 283 283 284 284 284 284 285 287
270 274 278 284 289 291 291 291 292 295 297 299 302 304 305 307 309 310 312 314 315 315 316 317 317 317 316 314 309 297 286 281 272 266 264 264 276 288 292 298 309 318 319 319 321 327 332 330 330 335 338 344 345 331 320 316 315 319 315 308 298 290 285 283 282 279 284 288 287 277 272 282 287 286 290 289 287 287 286 287 288 288 287 286 284 283 282 284
269 273 277 282 286 288 288 289 290 292 295 297 300 303 304 305 308 309 311 313 314 314 315 317 317 316 315 312 310 302 293 288 281 271 261 259 268 278 288 294 298 312 320 317 316 322 327 325 323 329 333 336 337 331 324 315 312 318 317 308 296 289 286 286 287 287 291 292 289 281 277 287 292 292 292 289 287 286 285 287 287 287 286 284 282 280 280 283
267 271 276 280 283 285 286 287 288 289 293 295 297 301 303 304 306 308 310 311 312 314 315 316 316 313 311 310 309 305 299 293 286 273 262 261 264 267 278 288 291 305 316 317 315 317 323 322 319 324 329 329 329 330 322 315 316 317 313 307 300 294 287 287 291 294 293 291 290 286 282 288 292 290 288 287 286 285 284 286 286 286 284 283 283 283 284 287
265 269 273 278 281 284 286 287 288 288 290 294 295 297 300 302 305 306 307 308 310 312 311 311 313 310 307 307 306 304 299 293 286 276 268 266 262 260 267 280 289 297 310 317 315 315 319 319 317 320 322 324 325 324 315 309 311 311 308 305 301 299 294 291 295 297 293 288 287 283 281 288 289 284 283 284 283 283 284 284 284 284 284 284 286 287 289 291
264 267 271 275 279 283 286 288 289 289 289 293 295 297 299 300 302 302 304 306 306 307 307 308 309 306 304 304 304 301 297 292 286 278 271 267 259 254 259 271 284 291 304 315 314 314 316 316 318 316 317 322 321 316 311 305 304 304 303 301 300 301 301 304 305 301 293 286 284 283 283 288 287 280 279 280 281 282 281 280 281 282 283 285 286 288 289 290
263 266 270 274 278 282 286 289 290 291 290 291 293 295 296 297 298 298 298 300 303 303 303 304 304 303 302 302 301 298 294 289 283 275 269 263 254 249 254 264 279 288 298 309 311 312 313 315 317 312 313 317 314 313 311 306 304 303 300 300 300 297 303 313 310 299 293 287 288 290 289 288 285 281 280 279 278 276 275 277 280 282 283 283 285 286 286 286
264 267 271 275 279 283 286 288 291 293 292 292 293 294 296 297 299 299 297 296 299 300 301 302 302 302 301 300 299 295 290 284 279 274 267 259 250 247 252 260 273 283 293 303 309 310 311 314 314 307 308 311 309 309 308 305 303 301 300 301 301 299 304 311 306 298 294 289 291 294 288 285 284 283 280 275 273 273 276 279 281 281 282 282 283 282 282 283
265 268 272 277 281 284 287 289 291 293 294 295 295 297 300 300 301 302 300 297 295 297 299 301 301 300 299 299 298 292 285 280 277 272 263 256 248 245 250 258 269 281 289 298 306 309 309 311 309 304 304 305 307 308 305 302 300 301 302 299 299 305 307 307 305 301 296 292 294 295 288 283 284 281 276 274 274 276 278 280 281 281 281 281 281 280 280 280
264 267 271 276 280 284 286 288 291 294 296 297 298 300 302 302 302 303 303 300 297 296 298 299 300 299 298 298 294 285 279 277 275 268 260 251 245 246 250 258 269 279 285 292 302 306 307 310 306 302 302 303 306 308 303 299 298 300 301 297 300 309 308 304 304 302 298 295 296 297 289 282 281 278 274 272 273 274 276 277 277 278 278 278 278 278 277 277
264 267 270 275 279 282 285 288 290 293 295 297 299 301 302 303 304 304 305 304 299 297 299 301 299 296 295 294 282 272 273 273 269 263 255 247 245 246 251 259 270 278 283 288 297 301 304 306 303 300 301 303 307 307 301 299 298 298 297 297 302 309 305 300 302 300 297 295 296 298 291 284 281 280 278 272 267 269 272 273 274 274 275 275 275 275 276 276
265 268 271 274 277 281 284 287 290 292 295 297 299 301 302 303 304 305 307 307 302 299 299 301 297 291 288 281 272 275 275 267 260 258 252 246 244 246 252 260 270 278 282 287 295 300 302 304 301 299 300 302 305 304 301 299 297 296 299 302 305 307 304 302 301 300 299 296 298 301 297 292 285 281 286 284 275 275 275 273 273 274 274 274 275 275 275 276
267 270 272 274 277 281 283 286 288 291 293 295 297 299 300 301 302 304 308 308 303 300 300 298 292 283 277 270 274 282 273 260 257 257 253 247 245 249 256 263 271 278 282 289 295 297 300 302 299 298 299 301 302 303 303 297 292 294 300 308 308 306 305 302 300 298 296 292 295 293 284 282 282 284 291 292 287 284 280 277 276 275 276 276 275 274 274 276
268 271 273 274 277 281 282 285 287 289 291 293 295 296 297 298 300 302 308 309 302 301 298 290 283 280 277 276 279 276 267 265 264 259 253 248 248 251 258 268 276 280 284 289 292 294 299 300 296 296 296 296 299 304 300 288 285 289 298 307 307 307 306 300 298 295 289 287 290 286 275 273 278 285 295 296 289 287 283 282 282 279 280 278 274 274 275 276
267 270 272 274 277 279 281 283 285 287 290 291 292 294 294 294 296 300 305 306 301 299 290 282 282 281 279 279 277 268 265 270 266 259 253 247 246 251 264 277 282 281 284 286 286 291 297 294 291 291 289 292 299 299 290 283 284 287 297 304 305 307 303 296 296 291 289 289 288 284 275 265 271 282 295 293 285 287 289 289 289 287 284 279 275 276 276 276
265 268 270 272 274 276 279 281 283 285 287 288 289 290 289 291 293 295 290 259 287 288 281 280 280 279 280 277 271 263 263 266 260 256 253 246 246 257 273 283 283 282 284 286 287 291 293 288 288 286 285 291 295 290 284 283 283 286 296 301 302 304 298 295 293 286 285 276 276 284 277 249 270 282 285 284 285 293 298 296 294 291 285 278 276 277 277 276
264 266 268 270 271 274 276 279 281 282 283 285 286 285 285 286 285 278 231 251 278 278 275 279 278 278 279 273 266 262 260 259 256 255 252 248 252 264 278 283 282 282 284 287 289 290 288 285 284 283 286 291 288 282 279 277 277 284 291 296 299 301 295 292 285 280 281 257 268 284 275 248 269 287 282 286 298 302 299 294 293 290 283 278 278 278 277 276
264 265 266 267 269 271 274 275 277 278 279 280 281 281 280 278 268 223 206 272 279 275 272 274 274 272 272 266 262 262 258 254 254 253 250 251 258 269 278 280 280 284 287 288 288 288 286 284 284 285 286 286 279 272 270 268 271 279 287 295 301 302 296 286 272 264 241 259 278 291 278 240 229 273 286 295 303 302 296 293 293 289 284 280 279 277 275 274
262 263 265 267 268 269 270 271 273 274 275 275 275 275 270 262 237 218 242 271 276 272 269 268 266 260 258 260 262 263 258 254 255 252 250 255 265 274 277 275 279 285 287 287 287 286 286 286 286 286 283 276 266 262 262 261 266 273 280 289 295 308 313 278 238 242 222 256 281 285 273 239 242 269 285 294 300 300 295 294 292 287 283 279 278 276 274 272
260 261 263 264 265 266 267 268 269 269 270 270 269 266 256 240 228 235 250 260 260 268 270 266 264 261 259 259 258 258 254 254 255 252 255 263 270 274 274 274 278 277 277 281 284 284 286 287 284 281 278 269 255 253 258 265 269 271 273 276 270 279 347 286 244 278 263 266 278 272 264 255 261 276 288 295 301 299 293 293 290 284 280 277 277 274 272 271
257 259 260 261 263 264 264 265 264 265 266 263 262 256 237 223 236 248 255 261 266 272 271 267 266 264 262 259 257 254 252 252 254 254 260 266 270 273 272 274 276 271 271 276 278 276 273 278 280 276 271 263 255 252 260 273 274 269 268 263 251 239 240 256 249 263 288 295 288 267 246 253 266 283 293 297 299 294 290 291 286 281 277 274 274 272 272 273
256 257 258 258 259 259 260 260 261 260 259 258 256 244 227 226 240 250 259 267 269 271 270 269 266 261 259 260 257 255 253 254 256 258 262 265 268 271 272 274 273 267 264 265 270 273 262 266 275 270 261 261 262 259 259 266 266 262 254 244 246 250 245 249 259 265 284 305 286 247 244 264 275 283 288 293 295 291 291 289 284 280 277 274 275 274 274 275
256 256 257 257 257 258 257 257 258 256 255 254 247 237 237 244 251 254 262 269 268 268 270 267 262 257 256 259 255 252 253 257 259 260 262 265 268 269 271 274 272 264 257 255 261 269 268 274 277 267 265 268 265 262 259 257 255 249 244 247 258 263 255 253 265 275 277 291 277 255 261 275 282 286 287 291 292 291 293 291 285 281 278 277 276 275 275 275
257 256 256 256 256 256 256 255 255 253 251 249 242 242 248 254 256 258 263 268 268 268 266 261 259 257 257 257 254 252 252 254 257 258 258 262 267 269 270 271 267 260 256 255 257 262 268 277 279 272 270 270 262 258 255 250 248 248 252 263 267 262 256 250 255 296 262 252 276 261 267 279 280 283 289 291 291 293 296 291 285 280 279 280 279 277 276 274
258 257 256 255 253 254 255 254 252 252 250 245 244 248 253 255 257 261 264 267 267 265 261 257 258 260 259 257 257 256 251 251 254 254 256 260 264 269 270 266 262 258 251 246 250 258 266 277 282 275 265 265 257 248 247 245 244 250 257 260 255 252 254 237 218 269 253 226 278 268 278 281 268 268 287 292 293 298 298 289 283 283 285 285 282 278 275 274
257 257 257 256 252 251 253 252 250 250 245 243 245 249 252 255 259 263 263 263 263 261 258 257 258 259 259 257 257 257 255 258 259 257 258 260 261 269 271 264 257 252 250 247 249 258 262 268 278 273 260 256 243 236 243 248 248 251 252 250 249 252 255 247 232 226 206 231 275 280 295 283 273 279 291 294 296 299 298 291 289 291 291 288 284 279 276 274
256 257 258 257 253 249 252 252 249 246 243 245 249 250 253 258 262 264 262 260 260 259 258 258 258 256 257 258 257 257 259 261 260 257 257 258 261 268 269 264 262 262 261 257 253 254 252 251 262 266 255 245 246 254 263 267 262 256 250 246 248 249 250 254 250 235 227 241 273 287 282 272 277 289 292 290 294 296 296 295 294 294 292 288 283 279 275 273
257 257 258 258 254 249 248 248 247 246 245 248 250 251 255 260 262 263 261 259 259 259 259 259 257 256 256 257 257 258 258 258 259 257 257 260 263 265 266 268 272 269 263 257 253 253 251 251 257 258 254 256 268 275 276 273 271 267 262 258 259 257 248 251 261 240 229 229 234 232 270 271 277 286 287 286 292 294 294 294 293 292 290 287 284 279 274 272
257 257 259 259 256 252 247 246 249 249 248 250 252 254 258 261 262 263 262 260 259 258 257 257 256 255 254 255 257 258 256 257 259 257 258 265 267 266 269 273 275 273 270 265 263 263 260 256 256 257 260 267 276 276 270 271 272 268 264 261 260 257 245 238 244 242 231 231 236 236 257 273 279 283 283 286 290 291 291 291 291 291 289 287 283 278 274 272
258 259 260 260 258 253 246 245 247 247 248 252 254 256 258 259 261 262 261 258 256 256 255 255 256 254 254 256 257 256 255 256 259 259 262 268 270 269 271 273 272 271 268 263 262 261 253 249 251 258 265 268 269 270 268 270 269 262 262 261 257 256 253 246 243 246 248 237 231 226 249 271 279 281 281 286 288 288 289 290 292 291 289 286 281 276 274 273
259 260 260 259 257 251 246 245 247 248 251 254 255 256 256 257 259 260 260 258 257 256 255 255 256 257 258 259 256 255 254 254 259 263 265 267 269 270 270 270 270 267 263 262 264 261 251 246 245 253 273 275 269 267 261 259 261 262 266 265 262 261 255 246 241 245 254 249 235 217 250 267 275 278 280 284 286 286 288 289 290 290 288 285 280 276 275 276
255 256 256 255 253 250 248 249 250 251 254 255 256 257 258 258 259 260 261 260 258 255 254 256 258 259 260 258 255 255 254 254 257 262 264 264 265 269 269 269 269 267 266 266 265 261 257 254 247 238 240 260 263 264 262 265 271 270 271 272 270 263 249 241 242 241 245 252 244 235 252 269 274 275 278 282 283 284 287 287 288 289 287 283 280 278 278 280
252 252 253 251 249 249 250 251 249 249 251 252 254 257 258 258 260 260 258 257 255 254 253 256 257 255 254 253 252 253 254 255 256 257 260 261 262 268 271 271 270 268 266 264 261 257 254 254 252 245 241 249 261 270 275 278 279 276 277 279 277 271 256 242 240 240 244 249 250 252 257 267 274 274 275 280 282 284 286 287 288 288 286 284 281 279 280 283
250 250 251 249 247 250 253 252 248 248 250 251 252 257 259 258 259 258 255 254 254 254 253 253 252 250 249 250 249 251 256 258 255 253 257 260 263 268 271 271 269 266 265 262 258 253 248 251 255 252 251 259 267 271 272 272 274 275 277 277 274 273 264 244 240 249 252 240 251 265 266 265 272 277 277 280 283 284 285 287 288 288 287 284 281 280 281 283
246 250 253 253 251 253 256 256 256 256 255 252 253 257 258 258 258 256 255 255 254 253 250 250 251 250 250 249 248 251 257 256 251 251 255 259 264 267 268 270 268 265 265 261 256 252 247 252 260 258 258 266 270 270 268 267 269 272 275 274 270 267 264 255 253 259 256 240 252 271 274 269 273 279 277 278 281 281 283 284 284 284 283 280 279 280 282 283
244 246 249 250 250 253 257 260 262 261 258 254 253 256 256 257 257 256 256 254 253 253 250 249 254 255 251 250 248 249 254 252 249 255 260 264 267 267 266 268 267 266 265 261 257 253 246 253 263 260 259 267 270 269 267 266 267 269 274 276 270 264 264 262 263 265 260 252 258 268 272 273 279 282 278 277 278 277 278 279 278 278 278 277 279 281 281 280
242 243 245 245 247 250 252 254 256 256 256 252 250 254 255 254 255 255 254 252 253 256 253 252 259 260 254 252 251 253 258 259 258 265 271 269 268 267 266 268 270 268 265 261 257 251 245 252 261 258 257 266 272 271 269 267 267 270 276 277 271 265 264 261 262 265 261 256 263 266 264 270 284 294 287 282 280 276 276 277 277 276 276 277 279 279 278 279
245 246 247 244 245 248 248 250 251 251 253 250 249 254 254 252 255 256 253 255 259 259 258 260 266 264 257 254 255 259 266 268 266 272 276 271 270 272 271 271 271 268 265 263 259 252 247 250 256 255 253 264 272 273 269 269 271 271 274 277 272 265 265 264 264 267 262 258 263 262 259 270 292 305 296 289 285 281 279 280 279 277 277 278 279 278 278 278
243 242 246 245 246 248 249 250 250 248 250 252 253 256 255 256 260 256 251 256 260 259 259 262 265 262 256 256 260 266 274 274 272 274 273 268 267 269 267 266 266 264 263 262 260 257 253 252 254 251 248 260 269 270 270 276 279 271 273 278 278 272 272 271 269 272 271 263 258 259 267 283 296 297 290 289 287 284 284 283 281 280 279 278 277 277 276 276
Height
3207 3207 3207 3207 3207 3207 3207 3206 3206 3206 3205 3205 3204 3203 3203 3202 3201 3200 3199 3198 3197 3196 3195 3193 3192 3190 3188 3187 3186 3184 3183 3183 3182 3182 3181 3180 3180 3179 3178 3177 3176 3175 3174 3173 3172 3171 3170 3170 3170 3169 3168 3168 3167 3166 3165 3165 3165 3164 3164 3164 3163 3162 3162 3162 3162 3161 3161 3160 3160 3159 3159 3157 3155 3155 3156 3156 3155 3155 3156 3156 3156 3156 3156 3155 3154 3153 3153 3153
3206 3206 3206 3206 3206 3206 3206 3206 3206 3205 3205 3205 3204 3203 3203 3202 3201 3201 3199 3198 3197 3196 3195 3194 3192 3191 3189 3188 3186 3185 3184 3183 3182 3182 3181 3181 3180 3179 3179 3178 3176 3175 3174 3173 3172 3171 3170 3169 3169 3168 3168 3167 3167 3166 3165 3165 3164 3164 3164 3164 3162 3161 3161 3162 3161 3160 3160 3159 3159 3158 3158 3156 3154 3153 3154 3154 3153 3153 3154 3155 3155 3154 3154 3153 3152 3152 3151 3151
3206 3206 3206 3205 3205 3205 3205 3205 3205 3205 3204 3204 3204 3203 3202 3202 3201 3200 3200 3198 3197 3197 3195 3194 3193 3191 3190 3188 3187 3186 3184 3183 3182 3182 3182 3181 3180 3179 3179 3177 3176 3175 3174 3174 3172 3171 3170 3169 3168 3167 3167 3167 3166 3166 3165 3165 3164 3164 3164 3164 3162 3161 3161 3161 3160 3159 3159 3158 3157 3157 3157 3156 3154 3151 3152 3153 3152 3152 3152 3153 3153 3153 3152 3151 3150 3150 3149 3148
3205 3205 3205 3205 3205 3204 3204 3204 3204 3204 3203 3203 3203 3202 3202 3201 3200 3200 3199 3198 3197 3196 3195 3194 3193 3192 3190 3189 3188 3186 3185 3184 3183 3182 3181 3181 3180 3179 3178 3177 3176 3175 3174 3173 3172 3171 3170 3169 3168 3167 3166 3166 3165 3165 3165 3165 3164 3164 3164 3164 3162 3161 3160 3160 3160 3159 3158 3157 3156 3156 3155 3154 3154 3152 3150 3151 3150 3150 3150 3151 3151 3151 3150 3149 3148 3147 3146 3146
3204 3204 3204 3204 3204 3203 3203 3203 3203 3203 3202 3202 3202 3201 3201 3200 3200 3199 3198 3198 3197 3196 3195 3194 3193 3192 3191 3189 3188 3186 3185 3184 3183 3182 3181 3181 3180 3179 3178 3177 3176 3175 3174 3173 3172 3171 3169 3168 3167 3166 3165 3165 3164 3164 3164 3164 3163 3163 3163 3163 3162 3161 3160 3159 3159 3158 3158 3157 3155 3154 3153 3153 3153 3152 3150 3149 3148 3147 3148 3148 3148 3148 3147 3146 3145 3145 3144 3144
3203 3203 3203 3203 3203 3203 3202 3202 3202 3201 3201 3201 3201 3200 3200 3199 3199 3198 3197 3197 3196 3195 3194 3194 3193 3192 3191 3189 3188 3187 3185 3184 3183 3182 3181 3180 3179 3179 3178 3177 3176 3175 3174 3173 3172 3171 3169 3168 3166 3166 3165 3164 3163 3163 3163 3162 3162 3162 3162 3162 3161 3161 3159 3158 3157 3157 3156 3155 3154 3153 3151 3151 3152 3152 3150 3148 3147 3146 3146 3146 3146 3145 3144 3143 3143 3142 3142 3142
3202 3202 3202 3202 3202 3202 3201 3201 3201 3200 3200 3199 3199 3199 3198 3198 3197 3197 3196 3196 3195 3194 3193 3193 3192 3191 3190 3189 3188 3186 3185 3184 3183 3182 3181 3180 3179 3178 3177 3176 3175 3174 3173 3172 3172 3170 3169 3167 3166 3165 3164 3163 3162 3161 3161 3161 3161 3160 3161 3161 3161 3160 3159 3157 3157 3156 3155 3154 3153 3152 3150 3150 3151 3151 3150 3149 3147 3146 3144 3144 3143 3142 3141 3141 3140 3140 3140 3139
3202 3201 3201 3201 3201 3201 3200 3200 3200 3199 3199 3198 3198 3198 3197 3197 3196 3196 3195 3194 3194 3193 3192 3192 3191 3190 3190 3189 3187 3186 3185 3184 3183 3181 3181 3180 3179 3178 3177 3176 3175 3174 3173 3172 3171 3170 3168 3166 3165 3164 3163 3162 3161 3160 3160 3160 3160 3159 3159 3159 3159 3159 3158 3157 3156 3155 3154 3153 3152 3151 3150 3149 3150 3150 3149 3148 3147 3145 3143 3142 3141 3140 3139 3139 3138 3138 3138 3137
3201 3201 3201 3200 3200 3200 3199 3199 3199 3198 3197 3197 3196 3196 3196 3195 3195 3194 3194 3193 3193 3192 3191 3190 3190 3189 3189 3188 3187 3185 3184 3183 3182 3181 3180 3179 3178 3177 3176 3175 3174 3173 3173 3172 3170 3169 3167 3165 3164 3163 3162 3161 3160 3159 3159 3158 3158 3158 3158 3157 3157 3157 3156 3155 3155 3154 3153 3152 3150 3149 3149 3148 3148 3148 3146 3146 3145 3143 3142 3141 3139 3139 3138 3137 3136 3136 3135 3134
3200 3200 3200 3199 3199 3199 3198 3198 3197 3197 3196 3196 3195 3195 3194 3194 3193 3193 3192 3192 3191 3191 3190 3189 3189 3188 3187 3187 3186 3184 3183 3182 3181 3180 3179 3179 3178 3177 3176 3175 3173 3173 3172 3171 3170 3168 3167 3165 3164 3162 3161 3160 3159 3158 3158 3157 3157 3156 3156 3155 3155 3154 3154 3153 3153 3152 3151 3151 3149 3147 3147 3147 3146 3145 3144 3143 3142 3141 3139 3138 3137 3136 3135 3135 3134 3133 3133 3131
3199 3199 3199 3198 3198 3197 3197 3196 3196 3195 3195 3195 3194 3193 3193 3193 3192 3191 3190 3190 3190 3189 3188 3188 3187 3187 3186 3185 3184 3183 3182 3181 3180 3179 3179 3178 3177 3176 3175 3174 3173 3172 3171 3170 3169 3168 3166 3165 3163 3162 3161 3159 3158 3157 3156 3156 3155 3154 3154 3153 3153 3153 3152 3151 3151 3150 3149 3149 3148 3146 3144 3143 3142 3142 3141 3140 3139 3137 3136 3135 3135 3134 3133 3132 3132 3131 3130 3129
3197 3197 3197 3197 3197 3196 3196 3195 3195 3194 3194 3193 3193 3192 3192 3191 3190 3190 3189 3189 3188 3187 3187 3186 3185 3185 3184 3183 3183 3182 3181 3180 3179 3178 3178 3177 3176 3175 3174 3173 3172 3171 3170 3170 3168 3167 3166 3164 3162 3161 3160 3159 3157 3156 3155 3154 3153 3153 3152 3151 3151 3151 3150 3150 3149 3149 3148 3148 3147 3146 3142 3138 3138 3138 3138 3137 3135 3134 3133 3132 3132 3132 3131 3130 3129 3129 3127 3126
3196 3196 3196 3196 3195 3195 3194 3194 3193 3193 3193 3192 3192 3191 3190 3189 3189 3188 3187 3187 3186 3186 3185 3184 3183 3183 3182 3182 3181 3180 3179 3179 3178 3177 3176 3176 3175 3174 3173 3172 3171 3171 3169 3168 3168 3167 3165 3164 3162 3161 3160 3158 3157 3156 3154 3153 3152 3151 3150 3149 3149 3149 3149 3148 3148 3147 3147 3147 3145 3145 3140 3136 3136 3136 3135 3134 3132 3131 3130 3129 3130 3129 3128 3127 3126 3125 3124 3123
3194 3194 3194 3194 3194 3193 3193 3192 3192 3192 3191 3191 3190 3190 3189 3188 3187 3186 3186 3185 3185 3184 3183 3182 3182 3181 3180 3180 3179 3178 3178 3177 3176 3176 3175 3175 3174 3173 3172 3171 3170 3169 3168 3167 3166 3166 3165 3163 3161 3160 3159 3157 3156 3155 3154 3152 3151 3150 3149 3148 3147 3147 3146 3146 3145 3145 3145 3145 3143 3142 3137 3132 3135 3134 3132 3131 3129 3128 3127 3126 3126 3126 3125 3124 3123 3122 3121 3120
3191 3192 3192 3192 3192 3191 3191 3191 3190 3190 3190 3189 3189 3188 3187 3187 3186 3185 3184 3183 3183 3182 3181 3181 3180 3179 3178 3178 3177 3177 3176 3175 3175 3174 3174 3173 3172 3172 3171 3170 3169 3168 3167 3166 3165 3165 3164 3162 3161 3159 3158 3156 3155 3154 3153 3152 3150 3149 3148 3147 3146 3145 3144 3144 3143 3142 3142 3142 3140 3139 3133 3129 3131 3131 3129 3128 3126 3125 3124 3123 3123 3122 3122 3120 3120 3119 3118 3117
3189 3189 3189 3189 3189 3189 3189 3189 3188 3188 3188 3187 3187 3186 3185 3185 3184 3183 3182 3182 3181 3180 3180 3179 3178 3177 3176 3176 3175 3175 3174 3173 3173 3172 3172 3171 3171 3170 3170 3169 3168 3167 3166 3165 3164 3163 3162 3161 3159 3158 3157 3155 3154 3153 3151 3150 3149 3148 3146 3145 3144 3143 3142 3141 3141 3140 3140 3138 3136 3135 3131 3127 3127 3127 3126 3125 3123 3122 3121 3120 3120 3119 3118 3116 3115 3114 3114 3113
3187 3187 3187 3187 3187 3186 3186 3186 3186 3186 3185 3185 3185 3184 3184 3183 3182 3181 3181 3180 3179 3178 3177 3177 3176 3175 3174 3174 3173 3173 3172 3171 3171 3170 3170 3169 3169 3168 3168 3167 3166 3165 3164 3163 3162 3161 3161 3160 3158 3157 3155 3154 3153 3152 3150 3148 3147 3146 3145 3144 3142 3141 3140 3139 3138 3138 3137 3135 3133 3131 3128 3125 3125 3123 3122 3121 3119 3118 3117 3116 3116 3115 3114 3112 3111 3110 3109 3108
3184 3184 3184 3184 3184 3184 3183 3183 3183 3183 3183 3182 3182 3182 3181 3180 3180 3179 3179 3178 3177 3176 3175 3175 3174 3173 3172 3172 3171 3170 3170 3168 3168 3168 3167 3167 3166 3166 3166 3165 3165 3164 3163 3162 3160 3159 3159 3158 3156 3155 3154 3153 3152 3150 3149 3147 3145 3144 3143 3141 3140 3139 3138 3136 3136 3136 3134 3132 3130 3128 3125 3123 3123 3121 3119 3118 3116 3114 3113 3112 3112 3111 3110 3108 3107 3106 3104 3103
3181 3181 3181 3181 3181 3181 3181 3181 3180 3180 3180 3180 3179 3179 3178 3178 3177 3177 3176 3176 3175 3175 3174 3173 3172 3171 3170 3169 3169 3168 3167 3165 3165 3164 3164 3164 3164 3164 3163 3163 3162 3162 3161 3160 3159 3158 3156 3156 3154 3153 3152 3151 3150 3149 3147 3146 3144 3143 3141 3139 3138 3136 3134 3134 3134 3133 3131 3129 3126 3124 3122 3121 3121 3119 3116 3115 3113 3111 3110 3109 3108 3107 3106 3105 3104 3102 3101 3100
3178 3178 3178 3178 3178 3178 3178 3178 3178 3177 3177 3177 3176 3176 3175 3175 3175 3174 3174 3174 3173 3173 3172 3171 3170 3169 3168 3167 3166 3165 3164 3162 3161 3161 3161 3161 3161 3161 3161 3161 3160 3160 3159 3158 3157 3156 3154 3153 3152 3151 3150 3149 3148 3147 3146 3144 3142 3141 3139 3138 3136 3134 3132 3131 3131 3130 3128 3125 3121 3121 3118 3117 3117 3116 3114 3113 3110 3107 3106 3106 3105 3103 3102 3101 3100 3099 3098 3097
3175 3175 3175 3175 3175 3175 3175 3175 3175 3174 3174 3174 3173 3173 3172 3172 3171 3170 3170 3171 3171 3170 3169 3169 3168 3166 3165 3164 3163 3162 3160 3159 3158 3158 3158 3158 3158 3158 3158 3158 3158 3157 3157 3156 3155 3154 3152 3151 3150 3149 3148 3147 3146 3145 3144 3142 3140 3138 3137 3135 3133 3131 3129 3129 3128 3126 3126 3122 3118 3117 3115 3112 3114 3113 3111 3109 3105 3103 3102 3102 3101 3099 3098 3097 3096 3094 3094 3094
3172 3172 3172 3172 3172 3172 3172 3172 3172 3171 3171 3171 3170 3169 3169 3168 3168 3167 3166 3166 3167 3167 3166 3165 3164 3163 3162 3161 3160 3158 3156 3155 3154 3154 3155 3155 3155 3155 3155 3156 3155 3155 3155 3154 3153 3151 3150 3149 3148 3147 3146 3145 3144 3142 3142 3140 3138 3136 3135 3133 3131 3129 3126 3125 3125 3123 3123 3119 3114 3113 3109 3107 3110 3110 3108 3104 3100 3099 3099 3097 3096 3094 3093 3092 3091 3090 3090 3090
3168 3168 3169 3169 3169 3169 3169 3169 3169 3168 3168 3168 3167 3167 3166 3165 3165 3164 3163 3161 3161 3163 3163 3162 3161 3159 3158 3157 3156 3155 3153 3153 3152 3152 3152 3152 3152 3152 3153 3153 3153 3152 3152 3151 3150 3149 3148 3147 3146 3144 3143 3142 3141 3140 3139 3138 3137 3135 3133 3131 3128 3127 3125 3122 3121 3120 3119 3116 3112 3109 3103 3101 3105 3104 3103 3101 3097 3096 3095 3093 3091 3090 3089 3088 3087 3086 3085 3085
3164 3165 3165 3166 3166 3166 3166 3166 3166 3165 3165 3165 3164 3164 3163 3162 3161 3160 3159 3157 3157 3158 3158 3158 3157 3155 3154 3153 3153 3152 3151 3151 3150 3150 3150 3150 3150 3150 3150 3150 3150 3149 3149 3149 3148 3146 3145 3145 3143 3142 3141 3140 3138 3137 3136 3135 3134 3132 3131 3129 3126 3126 3124 3121 3118 3117 3115 3114 3112 3107 3096 3089 3096 3097 3096 3098 3095 3093 3092 3090 3088 3086 3085 3084 3083 3082 3081 3080
3161 3161 3162 3162 3163 3162 3163 3163 3163 3162 3162 3161 3161 3161 3160 3159 3157 3157 3156 3154 3153 3154 3153 3153 3153 3152 3151 3150 3150 3150 3149 3149 3148 3148 3148 3147 3148 3148 3148 3148 3147 3146 3146 3145 3145 3143 3142 3142 3140 3139 3138 3137 3136 3135 3134 3132 3130 3129 3128 3127 3125 3123 3122 3119 3118 3114 3111 3110 3110 3109 3096 3083 3085 3091 3091 3092 3092 3090 3088 3085 3084 3083 3081 3080 3079 3077 3077 3077
3157 3158 3158 3159 3159 3159 3159 3159 3159 3159 3158 3158 3158 3158 3157 3156 3155 3154 3153 3150 3148 3150 3150 3148 3148 3148 3148 3148 3148 3148 3147 3146 3146 3146 3145 3145 3145 3145 3145 3145 3144 3144 3143 3142 3141 3140 3139 3139 3137 3136 3135 3134 3133 3132 3132 3130 3128 3126 3125 3125 3124 3121 3119 3117 3116 3113 3110 3107 3106 3108 3103 3086 3078 3083 3086 3086 3085 3084 3082 3079 3078 3078 3076 3075 3074 3072 3072 3072
3154 3154 3154 3155 3155 3156 3155 3155 3156 3155 3155 3155 3154 3154 3154 3153 3152 3151 3151 3149 3144 3145 3146 3145 3145 3145 3145 3145 3145 3145 3144 3143 3143 3143 3143 3143 3143 3143 3142 3141 3141 3140 3140 3139 3137 3136 3136 3136 3134 3133 3132 3130 3130 3130 3129 3128 3126 3123 3122 3122 3121 3119 3118 3114 3113 3112 3107 3105 3103 3102 3104 3092 3075 3074 3079 3079 3079 3077 3075 3074 3073 3072 3071 3069 3068 3067 3068 3068
3150 3150 3150 3151 3151 3151 3151 3151 3152 3151 3151 3151 3151 3151 3150 3150 3149 3149 3151 3148 3141 3141 3142 3142 3142 3142 3142 3142 3142 3142 3141 3140 3141 3140 3140 3140 3139 3140 3139 3138 3138 3136 3136 3135 3133 3132 3133 3132 3131 3130 3128 3127 3127 3127 3126 3125 3123 3121 3119 3119 3117 3116 3115 3112 3111 3109 3105 3103 3098 3093 3099 3094 3072 3068 3075 3074 3073 3071 3068 3068 3068 3067 3066 3064 3063 3063 3063 3063
3146 3146 3146 3146 3147 3147 3147 3147 3147 3147 3147 3147 3147 3147 3146 3147 3146 3146 3149 3145 3137 3137 3139 3139 3139 3139 3139 3139 3138 3138 3138 3138 3137 3137 3137 3137 3136 3136 3136 3135 3134 3133 3132 3131 3128 3129 3130 3129 3128 3126 3125 3124 3124 3124 3123 3122 3121 3119 3118 3116 3115 3113 3110 3109 3108 3104 3104 3102 3092 3087 3094 3090 3069 3062 3070 3070 3067 3066 3064 3064 3063 3062 3062 3059 3059 3060 3059 3058
3141 3142 3141 3141 3142 3143 3143 3143 3143 3143 3143 3143 3143 3143 3143 3143 3143 3145 3145 3139 3133 3133 3135 3135 3135 3135 3135 3135 3135 3135 3135 3135 3134 3134 3134 3133 3133 3133 3132 3131 3130 3129 3128 3126 3123 3124 3125 3125 3124 3123 3121 3121 3121 3120 3119 3120 3118 3117 3116 3113 3112 3110 3106 3106 3103 3102 3103 3095 3085 3083 3088 3087 3072 3058 3061 3064 3062 3061 3060 3060 3060 3058 3057 3055 3055 3056 3054 3053
3136 3137 3136 3136 3138 3139 3139 3139 3139 3139 3140 3139 3139 3139 3139 3139 3140 3141 3137 3132 3130 3130 3130 3131 3131 3131 3131 3131 3132 3132 3132 3131 3131 3130 3130 3130 3129 3130 3129 3128 3127 3125 3123 3122 3120 3119 3120 3120 3119 3118 3118 3118 3117 3117 3116 3116 3116 3115 3114 3111 3109 3107 3104 3102 3100 3101 3100 3087 3080 3081 3083 3085 3074 3055 3053 3058 3056 3056 3056 3055 3055 3054 3052 3051 3051 3051 3050 3048
3131 3131 3131 3132 3133 3134 3135 3134 3135 3135 3135 3135 3136 3135 3135 3136 3134 3131 3129 3130 3129 3125 3126 3128 3127 3128 3129 3128 3128 3129 3128 3128 3128 3128 3127 3126 3125 3125 3126 3125 3125 3124 3119 3117 3117 3115 3114 3115 3115 3114 3113 3114 3113 3113 3113 3113 3113 3112 3111 3111 3109 3106 3103 3101 3098 3097 3092 3083 3078 3079 3080 3077 3063 3049 3051 3054 3051 3051 3050 3049 3050 3048 3047 3047 3048 3047 3045 3044
3125 3125 3126 3127 3127 3129 3130 3130 3130 3131 3131 3131 3131 3130 3131 3130 3124 3121 3125 3127 3126 3122 3123 3125 3124 3124 3125 3124 3125 3126 3125 3125 3125 3125 3124 3122 3121 3121 3122 3121 3123 3122 3117 3114 3114 3111 3109 3109 3110 3109 3108 3109 3109 3109 3110 3109 3110 3109 3108 3109 3108 3107 3106 3100 3095 3091 3085 3079 3076 3078 3078 3067 3051 3044 3047 3048 3047 3047 3046 3045 3045 3043 3043 3043 3043 3042 3040 3038
3120 3120 3120 3121 3123 3124 3125 3125 3125 3126 3127 3126 3126 3126 3125 3121 3115 3116 3120 3122 3121 3120 3119 3120 3120 3120 3120 3120 3121 3122 3122 3122 3121 3121 3120 3118 3117 3116 3117 3118 3118 3119 3117 3114 3110 3108 3106 3104 3104 3105 3104 3105 3105 3106 3106 3106 3106 3105 3105 3106 3104 3104 3104 3097 3091 3087 3080 3076 3074 3076 3072 3057 3043 3039 3040 3041 3042 3042 3041 3040 3039 3037 3038 3039 3038 3037 3034 3033
3114 3115 3115 3116 3118 3119 3120 3120 3120 3121 3122 3121 3121 3119 3113 3109 3109 3113 3115 3116 3118 3117 3115 3115 3115 3115 3115 3115 3116 3117 3119 3118 3115 3116 3115 3113 3112 3111 3111 3113 3114 3114 3114 3112 3108 3105 3102 3098 3098 3100 3100 3101 3102 3102 3103 3103 3102 3101 3101 3102 3099 3098 3099 3094 3088 3084 3082 3078 3070 3066 3058 3044 3038 3035 3034 3038 3036 3036 3037 3035 3033 3033 3033 3034 3033 3031 3030 3029
3109 3109 3109 3111 3113 3114 3115 3115 3115 3116 3116 3115 3114 3106 3099 3100 3105 3108 3110 3112 3114 3113 3112 3111 3110 3110 3110 3109 3110 3112 3113 3113 3110 3111 3110 3108 3107 3105 3106 3107 3108 3109 3109 3108 3106 3102 3098 3093 3093 3096 3096 3097 3098 3098 3099 3099 3098 3097 3096 3096 3094 3094 3094 3091 3086 3082 3084 3080 3064 3054 3045 3036 3034 3029 3027 3032 3030 3030 3033 3029 3027 3029 3028 3029 3027 3026 3026 3025
3103 3102 3102 3105 3108 3109 3109 3110 3111 3110 3110 3110 3103 3092 3090 3095 3099 3104 3107 3107 3108 3109 3109 3107 3105 3105 3105 3103 3104 3106 3108 3108 3106 3105 3104 3104 3102 3099 3100 3102 3102 3104 3105 3105 3103 3100 3097 3091 3088 3092 3092 3093 3094 3094 3094 3094 3094 3093 3092 3091 3091 3091 3090 3090 3087 3082 3083 3079 3060 3048 3042 3032 3030 3026 3020 3023 3025 3025 3027 3024 3022 3024 3024 3024 3023 3022 3022 3022
3097 3096 3095 3099 3104 3104 3104 3105 3105 3105 3105 3101 3091 3085 3087 3089 3093 3100 3104 3103 3103 3104 3103 3101 3100 3100 3099 3098 3099 3101 3103 3102 3101 3100 3100 3099 3096 3093 3095 3096 3097 3099 3100 3101 3099 3097 3096 3090 3084 3086 3088 3088 3089 3090 3090 3089 3089 3089 3087 3088 3088 3088 3086 3085 3085 3080 3079 3076 3058 3045 3040 3026 3020 3023 3018 3017 3020 3021 3022 3019 3018 3020 3020 3019 3019 3018 3019 3018
3090 3089 3088 3094 3099 3099 3098 3099 3100 3100 3097 3089 3082 3081 3081 3082 3088 3095 3099 3099 3099 3098 3096 3095 3096 3096 3094 3094 3095 3096 3097 3096 3095 3095 3095 3094 3091 3089 3090 3092 3093 3095 3095 3097 3095 3093 3095 3091 3082 3079 3082 3084 3083 3084 3083 3082 3085 3085 3083 3084 3083 3083 3082 3079 3079 3075 3072 3072 3057 3047 3040 3018 3007 3016 3016 3014 3017 3018 3017 3015 3016 3017 3016 3015 3015 3015 3015 3015
3084 3082 3081 3087 3093 3093 3093 3094 3093 3091 3085 3078 3076 3076 3076 3079 3084 3088 3092 3094 3094 3092 3090 3089 3091 3091 3089 3090 3091 3091 3093 3091 3090 3090 3089 3088 3085 3084 3085 3087 3089 3091 3091 3091 3091 3090 3091 3089 3081 3076 3077 3078 3075 3076 3076 3078 3081 3080 3078 3079 3077 3078 3078 3074 3071 3067 3068 3069 3059 3052 3041 3011 3001 3012 3012 3011 3015 3014 3013 3012 3012 3013 3012 3011 3012 3011 3011 3011
3079 3076 3074 3080 3085 3087 3088 3085 3082 3080 3075 3071 3071 3072 3073 3076 3078 3080 3085 3088 3088 3087 3086 3085 3085 3085 3084 3086 3086 3087 3088 3085 3084 3085 3083 3081 3080 3079 3080 3082 3084 3086 3086 3086 3086 3086 3086 3083 3077 3073 3071 3069 3067 3069 3071 3073 3075 3073 3072 3071 3071 3073 3074 3072 3066 3058 3062 3061 3051 3051 3036 3001 2996 3010 3007 3007 3012 3009 3010 3009 3008 3009 3007 3007 3007 3007 3007 3007
3072 3069 3069 3074 3077 3079 3081 3077 3074 3071 3066 3064 3067 3069 3071 3071 3071 3074 3078 3081 3081 3081 3081 3080 3078 3078 3079 3079 3081 3082 3082 3080 3079 3079 3076 3074 3074 3074 3077 3079 3080 3081 3081 3081 3080 3081 3082 3079 3073 3068 3065 3064 3064 3065 3067 3068 3067 3067 3065 3064 3066 3067 3067 3067 3060 3051 3054 3050 3042 3050 3032 2992 2991 3006 3002 3004 3007 3004 3005 3005 3004 3004 3003 3003 3003 3002 3003 3002
3065 3064 3065 3067 3068 3071 3072 3068 3065 3062 3058 3059 3063 3065 3066 3066 3066 3067 3069 3072 3074 3074 3074 3073 3071 3072 3073 3074 3076 3077 3076 3076 3073 3071 3071 3068 3067 3070 3074 3075 3075 3075 3076 3075 3075 3076 3076 3073 3068 3063 3061 3062 3060 3060 3061 3062 3061 3059 3056 3056 3058 3057 3055 3056 3051 3048 3048 3039 3037 3047 3026 2990 2990 2999 2997 3000 3001 2999 3000 3000 2999 3000 2998 2998 2998 2997 2998 2997
3060 3059 3059 3059 3059 3060 3059 3057 3055 3054 3053 3057 3058 3058 3060 3060 3059 3059 3061 3063 3066 3066 3066 3065 3065 3067 3068 3069 3071 3070 3072 3072 3067 3065 3065 3063 3062 3065 3068 3069 3069 3069 3069 3069 3070 3071 3070 3067 3065 3063 3061 3059 3055 3054 3055 3054 3054 3051 3048 3049 3049 3048 3050 3050 3048 3048 3041 3028 3033 3038 3013 2989 2990 2994 2993 2996 2996 2994 2996 2995 2994 2995 2993 2993 2992 2992 2992 2992
3054 3052 3051 3050 3048 3047 3047 3048 3050 3050 3051 3052 3051 3052 3054 3052 3051 3053 3054 3055 3057 3059 3059 3059 3061 3062 3063 3064 3065 3065 3066 3065 3062 3060 3058 3057 3058 3060 3062 3063 3063 3062 3063 3064 3064 3065 3063 3061 3060 3059 3059 3055 3048 3045 3047 3047 3047 3044 3041 3042 3041 3042 3045 3043 3044 3044 3030 3022 3030 3023 2999 2988 2989 2990 2990 2991 2990 2990 2991 2991 2990 2989 2988 2988 2987 2987 2987 2986
3045 3043 3042 3040 3037 3036 3037 3041 3044 3043 3044 3046 3046 3047 3046 3042 3042 3045 3046 3046 3048 3051 3053 3054 3055 3057 3057 3058 3058 3058 3058 3057 3057 3054 3051 3052 3054 3055 3057 3057 3056 3057 3057 3058 3059 3059 3057 3053 3050 3049 3050 3046 3039 3038 3042 3043 3042 3038 3034 3035 3034 3034 3036 3038 3038 3029 3019 3022 3021 3002 2992 2989 2982 2984 2988 2986 2985 2986 2985 2985 2985 2984 2984 2983 2982 2983 2981 2980
3035 3031 3030 3030 3029 3028 3028 3031 3033 3034 3038 3041 3039 3038 3035 3032 3034 3037 3036 3037 3040 3044 3046 3046 3048 3048 3048 3050 3052 3052 3050 3050 3049 3047 3047 3048 3049 3051 3051 3050 3050 3051 3052 3053 3053 3052 3050 3044 3041 3042 3040 3036 3033 3035 3039 3039 3036 3033 3030 3027 3026 3027 3029 3030 3023 3013 3015 3023 3006 2985 2990 2989 2974 2977 2985 2982 2982 2982 2979 2980 2980 2979 2979 2978 2978 2977 2975 2975
3022 3019 3020 3022 3022 3019 3017 3019 3023 3028 3033 3032 3030 3030 3027 3025 3026 3026 3026 3030 3034 3037 3039 3037 3036 3036 3038 3043 3046 3045 3043 3042 3041 3041 3043 3044 3045 3046 3044 3043 3044 3044 3045 3047 3045 3045 3043 3036 3033 3036 3034 3029 3029 3030 3034 3033 3030 3027 3022 3017 3019 3022 3020 3015 3009 3005 3012 3012 2991 2978 2986 2982 2968 2973 2980 2978 2979 2978 2975 2976 2976 2974 2974 2973 2972 2971 2969 2969
3011 3010 3012 3013 3011 3011 3011 3012 3017 3021 3023 3023 3022 3020 3017 3014 3015 3016 3020 3025 3025 3027 3029 3026 3025 3027 3030 3036 3039 3035 3033 3032 3032 3035 3037 3038 3040 3040 3038 3037 3038 3038 3039 3039 3037 3039 3037 3029 3029 3031 3027 3023 3023 3024 3027 3027 3024 3021 3011 3004 3010 3014 3009 3005 3002 3000 3002 2997 2984 2979 2981 2971 2962 2968 2973 2974 2975 2973 2972 2972 2970 2969 2968 2967 2967 2966 2964 2964
3001 3000 3003 3003 3001 3004 3006 3008 3009 3009 3011 3015 3011 3006 3005 3006 3008 3009 3012 3015 3015 3016 3018 3016 3017 3022 3024 3028 3029 3022 3020 3024 3027 3029 3032 3032 3033 3033 3032 3031 3032 3032 3033 3032 3031 3032 3030 3025 3025 3026 3022 3018 3016 3018 3021 3019 3018 3015 2999 2990 3001 3006 3001 2998 2994 2990 2991 2986 2977 2977 2976 2963 2956 2962 2969 2969 2969 2967 2966 2966 2964 2963 2963 2962 2962 2961 2960 2959
2995 2995 2998 2998 2995 2996 2998 2999 3001 3000 3000 3000 2994 2992 2996 2998 3000 3003 3004 3005 3006 3007 3009 3009 3013 3018 3020 3021 3018 3010 3012 3020 3023 3024 3026 3026 3026 3027 3026 3026 3027 3027 3025 3025 3025 3025 3024 3020 3019 3021 3019 3012 3010 3013 3013 3012 3014 3007 2985 2976 2989 2995 2988 2985 2984 2980 2979 2974 2971 2975 2971 2956 2952 2960 2964 2963 2962 2961 2960 2960 2959 2959 2959 2958 2957 2956 2956 2955
2991 2989 2991 2992 2987 2988 2990 2990 2992 2991 2986 2983 2982 2985 2990 2990 2994 3000 2998 2996 2998 3001 3004 3007 3010 3013 3012 3008 3005 3004 3010 3017 3017 3018 3021 3020 3020 3021 3020 3019 3020 3019 3018 3019 3019 3018 3017 3014 3014 3017 3014 3007 3008 3008 3005 3010 3011 2992 2969 2967 2977 2979 2976 2975 2974 2970 2968 2967 2968 2967 2958 2948 2952 2958 2957 2955 2955 2954 2954 2954 2954 2954 2954 2953 2952 2952 2951 2951